| time (UTC) | temp F | wind direction | speed MPH | gust MPH | rain 1hr in | rain 24hr in | rain mn in | humidity % | barometer mb |
| 20260505193623 | 47 | 149 | 9.0 | 16.0 | 0.00 | 0.64 | 0.64 | 74 | 1009.0 |
| 20260505192613 | 47 | 93 | 9.0 | 14.0 | 0.00 | 0.64 | 0.64 | 75 | 1009.1 |
| 20260505191641 | 47 | 133 | 9.0 | 11.0 | 0.00 | 0.64 | 0.64 | 76 | 1009.2 |
| 20260505190629 | 47 | 121 | 5.0 | 16.0 | 0.00 | 0.64 | 0.64 | 77 | 1009.2 |
| 20260505185630 | 47 | 156 | 8.0 | 15.0 | 0.00 | 0.64 | 0.64 | 78 | 1009.3 |
| 20260505184624 | 46 | 180 | 8.0 | 16.0 | 0.00 | 0.64 | 0.64 | 79 | 1009.5 |
| 20260505183630 | 45 | 174 | 5.0 | 14.0 | 0.00 | 0.64 | 0.64 | 82 | 1009.6 |
| 20260505182615 | 45 | 99 | 8.0 | 15.0 | 0.00 | 0.64 | 0.64 | 80 | 1009.6 |
| 20260505181621 | 45 | 82 | 9.0 | 12.0 | 0.00 | 0.64 | 0.64 | 80 | 1009.7 |
| 20260505180627 | 45 | 150 | 6.0 | 12.0 | 0.00 | 0.64 | 0.64 | 84 | 1009.7 |
| 20260505175630 | 43 | 128 | 8.0 | 14.0 | 0.00 | 0.64 | 0.64 | 82 | 1009.8 |
| 20260505174617 | 43 | 119 | 9.0 | 12.0 | 0.00 | 0.64 | 0.64 | 84 | 1009.9 |
| 20260505173625 | 42 | 119 | 8.0 | 13.0 | 0.00 | 0.64 | 0.64 | 86 | 1010.1 |
| 20260505172651 | 42 | 109 | 5.0 | 14.0 | 0.00 | 0.64 | 0.64 | 88 | 1009.9 |
| 20260505171622 | 41 | 185 | 6.0 | 13.0 | 0.00 | 0.64 | 0.64 | 88 | 1009.9 |
| 20260505170612 | 41 | 105 | 6.0 | 11.0 | 0.01 | 0.64 | 0.64 | 87 | 1009.9 |
| 20260505165613 | 41 | 227 | 1.0 | 3.0 | 0.03 | 0.64 | 0.64 | 88 | 1010.1 |
| 20260505164621 | 40 | 250 | 1.0 | 3.0 | 0.06 | 0.64 | 0.64 | 91 | 1010.0 |
| 20260505163613 | 39 | 188 | 3.0 | 4.0 | 0.11 | 0.64 | 0.64 | 90 | 1010.1 |
| 20260505162622 | 38 | 163 | 0.0 | 5.0 | 0.15 | 0.64 | 0.64 | 90 | 1010.1 |
| 20260505161630 | 38 | 170 | 3.0 | 6.0 | 0.17 | 0.64 | 0.64 | 89 | 1010.0 |
| 20260505160618 | 38 | 165 | 4.0 | 9.0 | 0.18 | 0.63 | 0.63 | 89 | 1010.1 |
| 20260505152612 | 41 | 96 | 2.0 | 9.0 | 0.06 | 0.49 | 0.49 | 87 | 1010.1 |
| 20260505151624 | 42 | 70 | 3.0 | 6.0 | 0.06 | 0.46 | 0.46 | 86 | 1010.1 |
| 20260505150632 | 42 | 46 | 2.0 | 4.0 | 0.06 | 0.45 | 0.45 | 88 | 1010.0 |
| 20260505140631 | 43 | 13 | 2.0 | 4.0 | 0.12 | 0.39 | 0.39 | 88 | 1009.5 |
| 20260505124629 | 45 | 123 | 4.0 | 7.0 | 0.04 | 0.27 | 0.27 | 86 | 1008.2 |
| 20260505123622 | 45 | 155 | 3.0 | 6.0 | 0.04 | 0.27 | 0.27 | 88 | 1008.1 |
| 20260505122630 | 45 | 36 | 1.0 | 2.0 | 0.03 | 0.26 | 0.26 | 87 | 1008.5 |
| 20260505121619 | 45 | 51 | 0.0 | 4.0 | 0.03 | 0.26 | 0.26 | 88 | 1008.3 |
| 20260505120626 | 45 | 288 | 1.0 | 3.0 | 0.02 | 0.24 | 0.24 | 88 | 1008.4 |
| 20260505115651 | 45 | 288 | 1.0 | 4.0 | 0.02 | 0.23 | 0.23 | 87 | 1008.2 |
| 20260505114620 | 45 | 288 | 0.0 | 0.0 | 0.02 | 0.23 | 0.23 | 86 | 1008.0 |
| 20260505113628 | 45 | 288 | 0.0 | 4.0 | 0.02 | 0.23 | 0.23 | 85 | 1007.9 |
| 20260505112617 | 45 | 287 | 5.0 | 7.0 | 0.03 | 0.23 | 0.23 | 84 | 1007.9 |
| 20260505111649 | 45 | 61 | 4.0 | 10.0 | 0.06 | 0.23 | 0.23 | 84 | 1007.7 |
| 20260505110615 | 46 | 114 | 5.0 | 10.0 | 0.10 | 0.22 | 0.22 | 85 | 1007.8 |
| 20260505101632 | 46 | 117 | 3.0 | 6.0 | 0.13 | 0.17 | 0.17 | 87 | 1008.7 |
| 20260505100640 | 46 | 132 | 2.0 | 4.0 | 0.08 | 0.12 | 0.12 | 86 | 1008.9 |
| 20260505095626 | 47 | 130 | 0.0 | 3.0 | 0.04 | 0.08 | 0.08 | 84 | 1009.0 |
| 20260505094618 | 47 | 130 | 2.0 | 3.0 | 0.01 | 0.05 | 0.05 | 82 | 1009.0 |
| 20260505093627 | 48 | 130 | 3.0 | 7.0 | 0.01 | 0.04 | 0.04 | 80 | 1008.8 |
| 20260505092613 | 48 | 161 | 0.0 | 6.0 | 0.03 | 0.04 | 0.04 | 78 | 1008.6 |
| 20260505091620 | 48 | 190 | 3.0 | 5.0 | 0.04 | 0.04 | 0.04 | 77 | 1008.4 |
| 20260505090622 | 48 | 91 | 3.0 | 9.0 | 0.04 | 0.04 | 0.04 | 77 | 1008.0 |
| 20260505085621 | 48 | 94 | 5.0 | 9.0 | 0.04 | 0.04 | 0.04 | 76 | 1007.9 |
| 20260505084629 | 49 | 28 | 5.0 | 9.0 | 0.04 | 0.04 | 0.04 | 75 | 1007.8 |
| 20260505083621 | 49 | 155 | 10.0 | 12.0 | 0.03 | 0.03 | 0.03 | 73 | 1007.8 |
| 20260505082628 | 51 | 94 | 6.0 | 8.0 | 0.01 | 0.01 | 0.01 | 64 | 1007.9 |
| 20260505081615 | 52 | 63 | 3.0 | 11.0 | 0.00 | 0.00 | 0.00 | 56 | 1008.0 |
| 20260505080624 | 52 | 13 | 10.0 | 16.0 | 0.00 | 0.00 | 0.00 | 52 | 1007.8 |
| 20260505075628 | 53 | 63 | 5.0 | 10.0 | 0.00 | 0.00 | 0.00 | 49 | 1007.5 |
| 20260505074618 | 53 | 58 | 4.0 | 10.0 | 0.00 | 0.00 | 0.00 | 50 | 1007.7 |
| 20260505073625 | 52 | 46 | 8.0 | 10.0 | 0.00 | 0.00 | 0.00 | 53 | 1007.7 |
| 20260505072613 | 50 | 101 | 8.0 | 12.0 | 0.00 | 0.00 | 0.00 | 56 | 1007.7 |
| 20260505071627 | 49 | 119 | 6.0 | 9.0 | 0.00 | 0.00 | 0.00 | 57 | 1007.5 |
| 20260505070636 | 49 | 126 | 6.0 | 8.0 | 0.00 | 0.00 | 0.00 | 56 | 1007.4 |
| 20260505065653 | 49 | 109 | 6.0 | 8.0 | 0.00 | 0.00 | 0.00 | 55 | 1007.4 |
| 20260505064640 | 50 | 107 | 7.0 | 8.0 | 0.00 | 0.00 | 0.00 | 52 | 1007.4 |
| 20260505063626 | 51 | 148 | 2.0 | 6.0 | 0.00 | 0.00 | 0.00 | 51 | 1007.5 |
| 20260505062617 | 51 | 134 | 4.0 | 4.0 | 0.00 | 0.00 | 0.00 | 51 | 1007.5 |
| 20260505061627 | 52 | 135 | 2.0 | 4.0 | 0.00 | 0.00 | 0.00 | 50 | 1007.3 |
| 20260505060615 | 52 | 136 | 4.0 | 7.0 | 0.00 | 0.00 | 0.00 | 49 | 1007.2 |
| 20260505055627 | 53 | 178 | 2.0 | 5.0 | 0.00 | 0.00 | 0.00 | 48 | 1007.3 |
| 20260505054616 | 53 | 180 | 0.0 | 1.0 | 0.00 | 0.00 | 0.00 | 48 | 1007.2 |
| 20260505053646 | 54 | 179 | 0.0 | 5.0 | 0.00 | 0.00 | 0.00 | 47 | 1007.2 |
| 20260505052619 | 53 | 90 | 2.0 | 7.0 | 0.00 | 0.00 | 0.00 | 49 | 1007.2 |
| 20260505051625 | 53 | 85 | 4.0 | 11.0 | 0.00 | 0.00 | 0.00 | 51 | 1007.3 |
| 20260505050615 | 56 | 295 | 6.0 | 12.0 | 0.00 | 0.00 | 0.00 | 47 | 1007.5 |
| 20260505041623 | 55 | 109 | 4.0 | 10.0 | 0.00 | 0.00 | 0.00 | 42 | 1006.9 |
| 20260505040615 | 55 | 155 | 5.0 | 9.0 | 0.00 | 0.00 | 0.00 | 42 | 1007.0 |
| 20260505035614 | 55 | 108 | 7.0 | 12.0 | 0.00 | 0.00 | 0.00 | 41 | 1006.8 |
| 20260505034622 | 54 | 76 | 6.0 | 11.0 | 0.00 | 0.00 | 0.00 | 42 | 1006.6 |
| 20260505033648 | 54 | 121 | 7.0 | 10.0 | 0.00 | 0.00 | 0.00 | 43 | 1006.5 |
| 20260505032621 | 54 | 138 | 6.0 | 9.0 | 0.00 | 0.00 | 0.00 | 43 | 1006.5 |
| 20260505031627 | 54 | 115 | 7.0 | 9.0 | 0.00 | 0.00 | 0.00 | 43 | 1006.4 |
| 20260505030638 | 55 | 111 | 6.0 | 9.0 | 0.00 | 0.00 | 0.00 | 42 | 1006.4 |
| 20260505025635 | 56 | 116 | 4.0 | 7.0 | 0.00 | 0.00 | 0.00 | 42 | 1006.2 |
| 20260505024622 | 57 | 160 | 4.0 | 6.0 | 0.00 | 0.00 | 0.00 | 41 | 1006.0 |
| 20260505023612 | 58 | 192 | 3.0 | 7.0 | 0.00 | 0.00 | 0.00 | 40 | 1005.9 |
| 20260505022644 | 59 | 124 | 4.0 | 7.0 | 0.00 | 0.00 | 0.00 | 39 | 1005.7 |
| 20260505021633 | 60 | 150 | 3.0 | 6.0 | 0.00 | 0.00 | 0.00 | 37 | 1005.8 |
| 20260505020623 | 60 | 127 | 5.0 | 8.0 | 0.00 | 0.00 | 0.00 | 36 | 1005.6 |
| 20260505015622 | 61 | 173 | 2.0 | 3.0 | 0.00 | 0.00 | 0.00 | 38 | 1005.7 |
| 20260505014631 | 60 | 15 | 1.0 | 5.0 | 0.00 | 0.00 | 0.00 | 36 | 1005.6 |
| 20260505013620 | 59 | 13 | 3.0 | 6.0 | 0.00 | 0.00 | 0.00 | 39 | 1005.8 |
| 20260505012647 | 59 | 290 | 4.0 | 9.0 | 0.00 | 0.00 | 0.00 | 39 | 1005.8 |
| 20260505011654 | 60 | 11 | 4.0 | 11.0 | 0.00 | 0.00 | 0.00 | 41 | 1006.0 |
| 20260505010624 | 60 | 306 | 7.0 | 11.0 | 0.00 | 0.00 | 0.00 | 45 | 1006.0 |
| 20260505005624 | 61 | 266 | 11.0 | 16.0 | 0.00 | 0.00 | 0.00 | 39 | 1006.0 |
| 20260505004631 | 60 | 298 | 9.0 | 21.0 | 0.00 | 0.00 | 0.00 | 43 | 1005.6 |
| 20260505003619 | 61 | 266 | 9.0 | 19.0 | 0.00 | 0.00 | 0.00 | 42 | 1005.8 |
| 20260505002629 | 65 | 277 | 10.0 | 19.0 | 0.00 | 0.00 | 0.00 | 39 | 1005.6 |
| 20260505001616 | 68 | 300 | 5.0 | 9.0 | 0.00 | 0.00 | 0.00 | 25 | 1005.4 |
| 20260505000645 | 68 | 309 | 3.0 | 5.0 | 0.00 | 0.00 | 0.00 | 28 | 1005.2 |
| 20260504235625 | 68 | 289 | 3.0 | 5.0 | 0.00 | 0.00 | 0.00 | 21 | 1005.2 |
| 20260504234616 | 69 | 284 | 2.0 | 4.0 | 0.00 | 0.00 | 0.00 | 20 | 1005.1 |
| 20260504233648 | 70 | 284 | 2.0 | 5.0 | 0.00 | 0.00 | 0.00 | 19 | 1005.2 |
| 20260504232614 | 71 | 290 | 3.0 | 8.0 | 0.00 | 0.00 | 0.00 | 21 | 1005.2 |
| 20260504231643 | 71 | 326 | 0.0 | 5.0 | 0.00 | 0.00 | 0.00 | 22 | 1005.2 |
| 20260504230630 | 70 | 308 | 3.0 | 6.0 | 0.00 | 0.00 | 0.00 | 21 | 1005.3 |
| 20260504225630 | 70 | 315 | 4.0 | 8.0 | 0.00 | 0.00 | 0.00 | 23 | 1005.3 |
| 20260504224639 | 69 | 279 | 6.0 | 9.0 | 0.00 | 0.00 | 0.00 | 23 | 1005.4 |
| 20260504223628 | 69 | 303 | 6.0 | 10.0 | 0.00 | 0.00 | 0.00 | 23 | 1005.5 |
| 20260504222618 | 70 | 286 | 6.0 | 11.0 | 0.00 | 0.00 | 0.00 | 22 | 1005.5 |
| 20260504221631 | 69 | 302 | 8.0 | 12.0 | 0.00 | 0.00 | 0.00 | 22 | 1005.6 |
| 20260504220619 | 70 | 300 | 8.0 | 12.0 | 0.00 | 0.00 | 0.00 | 22 | 1005.8 |
| 20260504215620 | 70 | 327 | 4.0 | 10.0 | 0.00 | 0.00 | 0.00 | 21 | 1005.9 |
| 20260504214630 | 70 | 347 | 5.0 | 11.0 | 0.00 | 0.00 | 0.00 | 21 | 1006.1 |
| 20260504213622 | 71 | 294 | 5.0 | 10.0 | 0.00 | 0.00 | 0.00 | 22 | 1006.1 |
| 20260504212629 | 70 | 295 | 5.0 | 11.0 | 0.00 | 0.00 | 0.00 | 23 | 1006.4 |
| 20260504211617 | 70 | 286 | 6.0 | 9.0 | 0.00 | 0.00 | 0.00 | 21 | 1006.4 |
| 20260504210624 | 70 | 309 | 3.0 | 9.0 | 0.00 | 0.00 | 0.00 | 24 | 1006.7 |
| 20260504205628 | 69 | 287 | 4.0 | 8.0 | 0.00 | 0.00 | 0.00 | 22 | 1006.7 |
| 20260504204618 | 67 | 300 | 2.0 | 5.0 | 0.00 | 0.00 | 0.00 | 25 | 1006.8 |
| 20260504203626 | 65 | 154 | 2.0 | 6.0 | 0.00 | 0.00 | 0.00 | 23 | 1007.0 |
| 20260504202613 | 65 | 82 | 4.0 | 7.0 | 0.00 | 0.00 | 0.00 | 24 | 1007.0 |
| 20260504201625 | 64 | 14 | 3.0 | 6.0 | 0.00 | 0.00 | 0.00 | 26 | 1007.2 |
| 20260504200615 | 63 | 94 | 5.0 | 10.0 | 0.00 | 0.00 | 0.00 | 24 | 1007.5 |
| 20260504195617 | 62 | 5 | 6.0 | 11.0 | 0.00 | 0.00 | 0.00 | 28 | 1007.6 |
| 20260504194647 | 62 | 136 | 3.0 | 26.0 | 0.00 | 0.00 | 0.00 | 26 | 1007.9 |